Location: Kpoupa
(4.9667°N, 11.4667°E)
Time: 08:27:33
(UTC+00:00)

Daily predictions for brighter satellites

Satellite Brightness Start Highest point End
(mag) Time Altitude Azimuth Time Altitude Azimuth Time Altitude Azimuth
Ariane H10 4.0 17:24:57 10° W 17:28:11 89° N 17:43:56 10° E
ARIANE 5 R/B 4.4 17:27:44 10° WSW 17:31:36 40° S 17:44:34 10° ESE
Palapa B4 Rocket 3.9 17:42:53 10° W 17:46:25 32° SSW 17:49:48 10° SE
Cosmos 1862 Rocket 3.5 17:44:13 10° S 17:48:39 76° E 17:53:03 10° N
Cosmos 2242 Rocket 4.3 17:45:37 10° SSE 17:49:31 31° E 17:53:23 10° NNE
ATLAS 5 CENTAUR R/B 1.7 17:50:03 10° WSW 17:52:09 28° S 17:56:38 10° SE
Cosmos 1869 Rocket 3.6 17:48:52 10° N 17:53:11 87° W 17:57:31 10° S
Cosmos 389 Rocket 3.1 17:50:41 10° SSE 17:53:46 32° E 17:56:52 10° NNE
ARIANE 5 DEB (SYLDA) 3.7 17:43:06 10° W 17:54:17 53° S 17:58:53 11° ESE
Cosmos 1939 Rocket 3.1 17:52:19 10° SSE 17:56:13 52° ENE 18:00:10 10° N
GPS 2-15 Rocket1 4.0 17:53:49 10° W 17:58:13 39° SSW 18:02:25 11° SE
STARLINK-60 4.4 17:57:07 10° S 17:59:24 18° ESE 18:01:39 10° ENE
Cosmos 1733 Rocket 4.1 17:58:21 10° NNE 18:01:53 25° E 18:05:15 11° SE
Cosmos 1420 Rocket 4.5 18:02:27 10° SSE 18:07:15 37° ESE 18:12:01 10° NE
STARLINK-1151 4.3 18:03:43 10° NNW 18:07:32 37° NE 18:10:18 17° ESE
CZ-4 R/B 1.4 18:04:19 10° SSE 18:08:28 82° E 18:12:40 10° N
Geosat 4.0 18:05:22 10° SSE 18:10:23 86° ENE 18:15:23 10° NNW
CSL-04 Debris 4.5 18:05:21 10° SSE 18:10:29 45° ENE 18:15:34 10° N
ARIANE 3 DEB 3.6 18:01:24 10° W 18:10:38 85° S 18:14:01 15° E
Milstar 3 Cent rocket 2.5 18:05:55 10° WSW 18:10:52 84° NNW 18:19:21 10° ENE
STARLINK-1133 4.1 18:08:34 10° NNW 18:12:29 43° NE 18:15:04 19° ESE
CZ-2C R/B 3.7 18:10:06 10° NE 18:14:28 24° E 18:18:34 11° SSE
ARGOS Delta rocket 4.1 18:09:43 10° S 18:14:40 72° W 18:19:20 10° NNW
STARLINK-1139 3.9 18:13:27 10° NNW 18:17:27 50° NE 18:19:51 22° ESE
Cosmos 1461 2.8 18:14:39 10° S 18:18:25 50° ESE 18:22:15 10° NE
Intelsat 5-1 Rocket 3.7 18:17:24 10° WNW 18:19:15 15° NNW 18:20:47 10° N
CZ-2D R/B 3.3 18:16:06 10° S 18:19:57 78° W 18:23:48 10° NNW
STARLINK-1174 3.7 18:18:21 10° NNW 18:22:24 59° NE 18:24:38 25° SE
Cosmos 1703 Rocket 3.5 18:19:31 10° S 18:23:47 58° E 18:28:01 10° NNE
DELTA 2 R/B (1) 3.6 18:18:27 10° NW 18:23:59 70° NE 18:27:26 23° ESE
Cosmos 1500 4.3 18:20:37 10° NNW 18:24:16 44° W 18:27:54 10° SSW
Meteor 1-11 Rocket 3.6 18:20:30 10° N 18:26:01 81° E 18:31:32 10° S
Starlink 7 placeholder 3.2 18:24:37 10° SW 18:27:06 48° NW 18:29:24 10° NNE
STARLINK-1149 3.6 18:23:16 10° NNW 18:27:22 68° NE 18:29:23 28° SE
STARLINK-1180 3.5 18:28:13 10° NNW 18:32:21 81° ENE 18:34:11 32° SE
DMSP B5D2-2 4.5 18:27:30 10° NNE 18:32:23 40° ESE 18:36:43 13° SSE
GPS 2-14 Rocket1 2.7 18:28:47 10° WSW 18:32:57 84° NNW 18:35:25 24° ENE
HJ-1C 3.5 18:33:01 41° ESE 18:33:44 51° E 18:36:55 10° N
FALCON 9 R/B 2.2 18:28:43 10° WSW 18:34:26 47° NW 18:36:58 10° NE
Cosmos 1536 2.7 18:32:23 10° N 18:36:26 78° E 18:38:57 22° S
STARLINK-1153 3.5 18:33:12 10° NW 18:37:19 87° WSW 18:38:59 35° SSE
Cosmos 2278 Rocket 3.2 18:32:50 10° SSW 18:38:17 49° WNW 18:43:42 10° N
MOS 1 Rocket 3.1 18:34:52 10° NNE 18:39:03 55° ESE 18:42:07 18° S
STARLINK-1132 3.7 18:38:10 10° NW 18:42:17 75° WSW 18:43:46 38° SSE
Cosmos 1816 Rocket 4.4 18:37:07 10° S 18:43:18 89° ESE 18:49:26 10° N
Cosmos 1515 3.5 18:43:54 40° SSE 18:45:07 68° E 18:48:53 10° N
Cosmos 44 Rocket 4.1 18:40:44 10° N 18:45:14 33° ENE 18:45:43 32° E
Cosmos 1666 2.9 18:41:51 10° N 18:45:36 68° W 18:47:44 24° S
STARLINK-1177 3.9 18:43:11 10° NW 18:47:15 63° WSW 18:48:34 40° S
STARLINK-1167 4.1 18:48:12 10° NW 18:52:14 54° WSW 18:53:21 40° S
Ariane Rocket 3.3 18:52:49 42° E 18:53:08 42° ENE 18:57:53 10° N
Cosmos 371 Rocket 3.2 18:49:14 10° SSW 18:54:03 90° NW 18:58:53 10° NNE
STARLINK-1168 4.4 18:53:13 10° NW 18:57:11 46° SW 18:58:07 38° SSW
Cosmos 1908 Rocket 4.2 18:53:07 10° NNE 18:56:29 39° NE 18:56:29 39° NE
Cosmos 2034 Rocket 4.0 18:52:20 10° N 18:58:19 55° E 18:59:54 44° SE
Cosmos 1513 Rocket 4.4 18:52:22 10° N 18:58:33 90° W 19:02:58 21° S
SL-4 R/B 2.5 18:54:53 10° SW 18:59:07 65° NW 19:03:39 10° NNE
SJ-11-01 4.2 18:58:16 40° S 19:00:00 84° WSW 19:04:43 10° NNW
BREEZE-M DEB (TANK) 4.4 18:57:59 10° WSW 19:00:36 22° WNW 19:01:36 17° NNW
H-2A R/B 1.8 19:01:34 58° SE 19:02:26 73° ENE 19:07:26 10° N
Okean 1-7 4.2 18:58:55 10° SSW 19:02:59 41° W 19:07:00 10° NNW
MOS 1 4.5 19:12:25 52° ENE 19:12:25 52° ENE 19:17:40 10° N
DNEPR-1 R/B 3.6 19:08:05 10° NNW 19:12:34 76° WNW 19:12:34 76° WNW
Cosmos 1464 Rocket 4.4 19:10:18 10° NNW 19:16:33 61° W 19:20:50 21° SSW
H-2A ROCKET BODY 3.8 19:24:03 10° WNW 19:26:49 24° N 19:33:26 10° NE
ARGOS 3.4 19:34:17 64° W 19:34:17 64° W 19:39:31 10° NNW
Meteor 2-4 Rocket 4.4 19:33:49 34° SW 19:35:46 49° W 19:40:55 10° N
Cosmos 2297 4.3 19:41:01 40° WSW 19:42:34 52° WNW 19:48:03 10° N
ARIANE 5 R/B 3.8 19:32:45 10° W 19:47:13 71° WSW 19:47:13 71° WSW
USA 267 3.6 19:58:37 57° WSW 19:58:37 57° WSW 20:04:26 10° NW
ARIANE 5 R/B 4.0 19:33:00 10° W 20:03:53 62° SW 20:03:53 62° SW
Ariane 3 Deb 4.5 20:01:46 10° W 20:14:45 51° WNW 20:14:45 51° WNW
Ariane H10+ 4.3 20:00:25 10° W 20:38:29 84° N 20:39:16 81° NE
